Location: Newark
(33.2404°N, 35.6778°E)
Time: 18:21:11
(UTC+00:00)

Hubble Space Telescope - Pass Details

Date: 31 January 2020
Orbit: 536 x 540 km, 28.5° (Epoch: 16 February)

Event Time Altitude Azimuth Distance (km) Brightness Sun altitude
Exits shadow 02:13:40 15° 149° (SSE) 1,467 3.3 -29.5°
Drops below altitude 10° 02:15:39 10° 121° (ESE) 1,776 4.1 -29.1°
Sets 02:18:38 0° 98° (E) 2,669 5.6 -28.5°
